This is the latest recevied weather packets stored in our database for station/object N7SWJ. If no packets are shown the sender has not sent any weather packets the latest 10 day(s).
| Time | Temp. | Humidity | Pressure | Rain* | Wind** | Luminosity | Snow |
|---|---|---|---|---|---|---|---|
| 1777908283 | 15.56° C | 36% | 1010.1 hPa | 0 mm | - | 283 W/m² | - |
| 1777907978 | 15° C | 37% | 1010.4 hPa | 0 mm | - | 197 W/m² | - |
| 1777907674 | 14.44° C | 36% | 1010.2 hPa | 0 mm | - | 264 W/m² | - |
| 1777907369 | 14.44° C | 37% | 1010.5 hPa | 0 mm | - | 267 W/m² | - |
| 1777907066 | 13.89° C | 38% | 1010.5 hPa | 0 mm | - | 166 W/m² | - |
| 1777906764 | 13.89° C | 40% | 1010.7 hPa | 0 mm | - | 156 W/m² | - |
| 1777906460 | 13.89° C | 38% | 1010.7 hPa | 0 mm | - | 156 W/m² | - |
| 1777906157 | 13.33° C | 39% | 1010.7 hPa | 0 mm | - | 150 W/m² | - |
| 1777905854 | 12.78° C | 39% | 1010.7 hPa | 0 mm | - | 150 W/m² | - |
| 1777905550 | 12.78° C | 41% | 1010.7 hPa | 0 mm | - | 144 W/m² | - |
| 1777905247 | 12.22° C | 41% | 1010.8 hPa | 0 mm | - | 143 W/m² | - |
| 1777904944 | 12.22° C | 41% | 1010.7 hPa | 0 mm | - | 143 W/m² | - |
| 1777904642 | 11.67° C | 41% | 1010.7 hPa | 0 mm | - | 122 W/m² | - |
| 1777904334 | 11.67° C | 43% | 1010.7 hPa | 0 mm | - | 113 W/m² | - |
| 1777904030 | 11.11° C | 42% | 1010.7 hPa | 0 mm | - | 109 W/m² | - |
| 1777903727 | 10.56° C | 45% | 1010.7 hPa | 0 mm | - | 110 W/m² | - |
| 1777903423 | 10.56° C | 46% | 1010.7 hPa | 0 mm | - | 109 W/m² | - |
| 1777903120 | 10° C | 46% | 1010.5 hPa | 0 mm | - | 104 W/m² | - |
| 1777902816 | 10° C | 48% | 1010.9 hPa | 0 mm | - | 101 W/m² | - |
| 1777902514 | 10° C | 50% | 1010.8 hPa | 0 mm | - | 93 W/m² | - |
| 1777902211 | 9.44° C | 51% | 1010.8 hPa | 0 mm | - | 82 W/m² | - |
| 1777901908 | 9.44° C | 53% | 1011 hPa | 0 mm | - | 73 W/m² | - |
| 1777901605 | 8.89° C | 53% | 1010.9 hPa | 0 mm | - | 72 W/m² | - |
| 1777901303 | 8.89° C | 52% | 1010.7 hPa | 0 mm | - | 75 W/m² | - |
| 1777901000 | 8.89° C | 52% | 1010.9 hPa | 0 mm | - | 67 W/m² | - |
* Rain latest hour (hover to see other rain measurements)
** Current wind speed in m/s (hover to see current wind gust speed)